www.pogodaiklimat.ru

Погода и климат >> Архив погоды >> Мексика >> Arriaga


ПОГОДА в Arriaga

  • Прогноз погоды в Arriaga
  • Монитор погоды в Arriaga
  • Климат города

АРХИВ ПОГОДЫ в Arriaga

Время (UTC), дата Ветер
(напр.,м/с)
 
Видим.   Явления Облачность Т
(С)
Тd
(С)
f
(%)
Тe
(С)
Тes
(С)
Комфортность P
(гПа)
Po
(гПа)
Тmin
(С)
Tmax
(С)
R
(мм)
S
(см)
03 16.03 С 14 1000 м 5/0
[Ci]
+26.8 +23.1 80 +36 +36 очень
душно
1015.3 1009.8
06 16.03 С 13 1000 м 5/0
[Ci]
+26.4 +23.2 83 +36 +36 очень
душно
1016.0 1010.5 +23.5 +34.0
09 16.03 С 14 1000 м 5/0
[Ci]
+25.0 +23.6 92 +34 +34 очень
душно
1014.6 1009.0
12 16.03 С 14 1000 м 5/0
[Ci]
+24.6 +23.8 95 +33 +33 очень
душно
1014.9 1009.3 +22.0 +34.0
15 16.03 С 9 4000 м 4/4 840 м
[Cu hum]
+26.0 +23.2 85 +35 +35 очень
душно
1016.9 1011.3
18 16.03 С 6 4000 м 3/3 840 м
[Cu hum]
+30.4 +24.5 71 +43 +48 опасность
перегрева
1016.4 1010.8 +22.0 +31.0
21 16.03 С 6 4000 м 3/3 840 м
[Cu hum]
+32.2 +26.7 73 +50 +53 опасность
перегрева
1013.3 1007.8
00 17.03 С 7 4000 м 1/1 600 м
[Cu hum]
+28.8 +24.5 78 +41 +41 опасность
перегрева
1013.8 1008.3 +23.5 +33.5
03 17.03 С 7 1000 м 3/3 840 м
[Cu hum]
+27.0 +24.3 85 +38 +38 очень
душно
1015.6 1010.1
06 17.03 н/о +26.0 +23.0 84 +6 +6 1015.8 1010.3 +23.5 +33.5
09 17.03 С 11 1000 м 5/0
[Ci]
+25.4 +24.6 95 +36 +36 очень
душно
1015.1 1009.5
12 17.03 С 12 1000 м 5/0
[Ci]
+24.8 +23.7 94 +34 +34 очень
душно
1015.0 1009.4 +23.0 +33.5
18 17.03 С 5 4000 м 3/3 840 м
[Cu hum]
+32.6 +26.6 71 +50 +57 опасность
перегрева
1015.3 1009.8 +23.0 +33.5
21 17.03 С 2 5000 м 3/3 840 м
[Cu hum]
+35.0 +28.3 68 +56 +64 опасность
перегрева
1011.4 1006.0
00 18.03 С 3 5000 м 3/3 600 м
[Cu hum]
+31.0 +28.2 85 +52 +52 опасность
перегрева
1012.4 1007.0 +23.0 +36.5
03 18.03 С 4 3000 м ясно +28.4 +25.2 83 +41 +41 опасность
перегрева
1014.4 1009.0
06 18.03 С 5 3000 м ясно +27.4 +24.1 82 +38 +38 очень
душно
1015.4 1010.0 +23.0 +36.5
09 18.03 С 5 3000 м ясно +26.0 +22.7 82 +34 +34 очень
душно
1014.5 1009.0
12 18.03 С 14 3000 м ясно +25.2 +22.1 83 +33 +33 очень
душно
1015.5 1010.0 +23.0 +36.5
15 18.03 С 16 5000 м 3/3 840 м
[Cu hum]
+26.8 +21.4 72 +34 +34 очень
душно
1017.5 1012.0
18 18.03 С 2 5000 м ясно +33.2 +25.7 65 +48 +69 опасность
перегрева
1016.5 1011.0 +23.0 +35.0
21 18.03 С 7 5000 м 3/3 840 м
[Cu hum]
+33.8 +26.2 65 +50 +53 опасность
перегрева
1013.5 1008.0
00 19.03 С 13 5000 м 3/3 600 м
[Cu hum]
+30.8 +24.3 68 +43 +43 опасность
перегрева
1012.4 1008.0 +23.0 +36.0
03 19.03 С 7 1000 м 3/3 840 м
[Cu hum]
+28.4 +23.9 77 +39 +39 очень
душно
1015.3 1009.8
06 19.03 штиль 0 50 км ?/? +27.0 +24.3 85 +38 +38 очень
душно
1016.0 1010.5 +23.0 +36.0
09 19.03 С 8 1000 м 5/0
[Ci]
+25.4 +24.0 92 +35 +35 очень
душно
1015.0 1009.5
12 19.03 С 7 1000 м 5/0
[Ci]
+25.0 +24.2 95 +34 +34 очень
душно
1015.8 1010.2 +23.0 +36.0
15 19.03 С 4 5000 м 3/3 800 м
[Cu hum]
+26.9 +24.3 86 +38 +42 очень
душно
1017.5 1011.9
18 19.03 С 3 5000 м 3/3 800 м
[Cu hum]
+32.3 +28.4 80 +54 +66 опасность
перегрева
1015.3 1010.5 +23.0 +33.8
21 19.03 С 3 5000 м 3/3 800 м
[Cu hum]
+34.0 +28.2 72 +55 +62 опасность
перегрева
1012.6 1007.1
00 20.03 С 3 5000 м 3/3 600 м
[Cu hum]
+31.4 +26.7 76 +48 +48 опасность
перегрева
1012.9 1007.4 +23.0 +36.5
03 20.03 С 7 1000 м 3/3 840 м
[Cu hum]
+28.4 +26.8 91 +44 +44 опасность
перегрева
1014.4 1008.9
06 20.03 С 4 100 м ясно +26.0 +24.4 91 +36 +36 очень
душно
1015.8 1010.3 +23.0 +36.5
12 20.03 С 5 100 м ясно +23.2 +18.5 75 +29 +29 душно 1015.3 1009.7 +21.0 +36.5
15 20.03 С 3 4000 м ясно +25.9 +21.8 78 +33 +41 очень
душно
1017.4 1011.8
18 20.03 С 3 4000 м ясно +31.8 +23.8 63 +43 +60 опасность
перегрева
1016.7 1011.1 +21.0 +33.5
21 20.03 С 4 5000 м 1/1 840 м
[Cu hum]
+34.0 +28.1 71 +55 +62 опасность
перегрева
1013.5 1008.0
00 21.03 С 7 3000 м 1/1 600 м
[Cu hum]
+31.0 +27.3 81 +49 +49 опасность
перегрева
1012.8 1007.3 +21.0 +35.0
03 21.03 С 7 1000 м 3/3 840 м
[Cu hum]
+27.4 +24.1 82 +38 +38 очень
душно
1014.1 1008.6
06 21.03 С 6 1000 м 3/3 840 м
[Cu hum]
+26.2 +24.6 91 +37 +37 очень
душно
1014.2 1008.7 +21.0 +35.0
09 21.03 С 5 <100 м 1/1 2000 м
[Cu hum]
+25.4 +24.9 97 1013.2 1008.3
12 21.03 С 5 1000 м 3/3 840 м
[Cu hum]
+25.4 +24.4 94 +35 +35 очень
душно
1013.4 1008.4 +23.0 +35.0
15 21.03 С 5 4000 м 1/1 840 м
[Cu hum]
+27.6 +22.6 74 +36 +41 очень
душно
1015.3 1009.8
18 21.03 штиль 0 50 км ?/? +33.0 +25.0 63 +47 +47 опасность
перегрева
1013.9 1008.3 +23.0 +34.2
21 21.03 С 3 4000 м ясно +36.4 +27.3 60 +55 +65 опасность
перегрева
1010.3 1004.8
00 22.03 С 3 3000 м ясно +32.2 +26.7 73 +50 +50 опасность
перегрева
1011.0 1005.6 +23.0 +37.0
03 22.03 С 3 1000 м 1/1 840 м
[Cu hum]
+29.0 +25.0 79 +42 +42 опасность
перегрева
1013.4 1007.9
06 22.03 С 4 1000 м ясно +27.8 +22.5 73 +37 +37 очень
душно
1014.1 1008.6 +23.0 +37.0
12 22.03 С 3 100 м ясно +26.2 +21.7 76 +34 +34 очень
душно
1011.8 1006.3 +23.0 +37.0
15 22.03 С 3 100 м ясно +26.2 +21.7 76 +34 +41 очень
душно
1011.8 1006.3 +23.0 +37.0
18 22.03 С 1 4000 м 4/0
[Cs]
+34.7 +24.1 54 +46 +69 опасность
перегрева
1013.3 1007.8 +23.0 +36.0
21 22.03 С 2 5000 м 6/6 800 м
[Cu hum]
+35.9 +27.5 62 +55 +60 опасность
перегрева
1010.9 1005.4

 

Местоположение метеостанции Arriaga (Мексика): широта 16.23 долгота -93.90 высота над уровнем моря 48 м.

В архиве по умолчанию представлена погода в Arriaga за последнюю неделю. Архивные данные за месяц целиком и за предыдущие месяцы, начиная с января 2011 года, Вы можете получить, выбрав интересующий диапазон дат из раскрывающегося списка и нажав кнопку "Ввод!".

Внимание! Время в таблицах - всемирное. Для получения местного времени необходимо прибавить поправку, которая в Arriaga равна -6 ч.

Смотрите также архив погоды в соседних городах и на ближайших метеорологических станциях:

Погода в Tuxtla Gutierrez (Мексика) (100 км)
Погода в Salina Cruz (Мексика) (137 км)
Погода в Sn. Cristobal Las C (Мексика) (147 км)
Погода в Comitan (Мексика) (189 км)
Погода в Coatzacoalcos (Мексика) (218 км)
Погода в Villahermosa (Мексика) (220 км)
Погода в Tapachula City (Мексика) (229 км)
Погода в Huehuetenango (Гватемала) (280 км)
Погода в Puerto Angel (Мексика) (283 км)
Погода в Oaxaca (Мексика) (313 км)

Пояснения к столбцам:

Ветер - указаны скорость ветра в м/с - средняя за 10 мин, порывы в срок и между сроками (в фигурных скобках) и направление, откуда дует ветер: С - северный, СВ - северо-восточный, В - восточный, ЮВ - юго-восточный, Ю - южный, ЮЗ - юго-западный, З - западный, СЗ - северо-западный.
Видимость - горизонтальная дальность видимости в метрах или километрах. При видимости от 1 до 10 км при отсутствии осадков обычно наблюдается дымка, при ухудшении видимости до 1 км и менее - туман. В сухую погоду видимость может ухудшаться дымом, пылью или мглою.
Явления - указаны атмосферные явления, наблюдавшиеся в срок или в последний час перед сроком; фигурными скобками обозначены явления, наблюдавшиеся между сроками (за 1-3 часа до срока); квадратными скобками обозначены град или гололедные отложения с указанием их диаметра в мм.
Облачность - указаны через наклонную черту общая и нижняя облачность в баллах и высота нижней границы облаков в метрах; квадратными скобками обозначены формы облаков: Ci - перистые, Cs - перисто-слоистые, Cc - перисто-кучевые, Ac - высококучевые, As - высокослоистые, Sc - слоисто-кучевые, Ns - слоисто-дождевые, Cu - кучевые, Cb - кучево-дождевые. Подробнее классификацию облаков см. в Атласе облаков (PDF).
T - Температура воздуха - температура, измеренная на высоте 2 м над землей.
Td - Температура точки росы - температура, при понижении до которой содержащийся в воздухе водяной пар достигнет насыщения.
f - Относительная влажность воздуха - влажноcть воздуха, измеренная на высоте 2 м над землей.
Te - Эффективная температура - температура, которую ощущает одетый по сезону человек в тени. Характеристика душности погоды. При расчете учитывается влияние влажности воздуха и скорости ветра на теплоощущения человека.
Tes - Эффективная температура на солнце - температура, которую ощущает человек, с поправкой на солнечный нагрев. Характеристика знойности погоды. Зависит от высоты солнца над горизонтом, облачности и скорости ветра. Ночью, в пасмурную погоду, а также при ветре 12 м/с и более поправка равна нулю.
P - Атмосферное давление - приведенное к уровню моря атмосферное давление.
Po - Атмосферное давление - измеренное на уровне метеостанции атмосферное давление.
Tmin - Минимальная температура - минимум температуры воздуха на высоте 2 м над землей.
Tmax - Максимальная температура - максимум температуры воздуха на высоте 2 м над землей.
R - Количество осадков - Количество выпавших осадков, мм. При наведении курсора мыши на число - период времени, за который выпало указанное количество осадков.
S - Снежный покров - Высота снежного покрова, см. При наведении курсора мыши на число - состояние снежного покрова и степень покрытия местности в баллах.